Miscellaneous Local Product
Issued by NWS Hastings, NE

Home | Current Version | Previous Version | Text Only | Print | Product List | Glossary Off
Versions: 1 2 3 4 5 6 7 8 9 10 11 12 13 14 15 16 17 18 19 20 21 22 23 24 25 26 27 28 29 30 31 32 33 34 35 36 37 38 39 40 41 42 43 44 45 46 47 48 49 50

000
AXUS43 KGID 262302
MISGRI

GID CWA HOURLY WEATHER ROUNDUP
NATIONAL WEATHER SERVICE HASTINGS NE
500 PM CST THU FEB 26 2015

NOTE: "FAIR" INDICATES FEW OR NO CLOUDS BELOW 12,000 FEET WITH NO
SIGNIFICANT WEATHER AND/OR OBSTRUCTIONS TO VISIBILITY.

...SOUTH CENTRAL NEBRASKA...

CITY           SKY/WX    TMP DP  RH WIND       PRES   REMARKS
GRAND ISLAND   SUNNY     16  -4  41 N14       30.46S WCI   2
HASTINGS       SUNNY     17  -7  34 N13       30.43S WCI   4
KEARNEY        MOSUNNY   18  -6  35 NE17      30.42S WCI   2
ORD            SUNNY     16  -7  35 N10       30.43S WCI   4
YORK           MOSUNNY   14   0  52 N12G20    30.47S WCI   0
AURORA         MOSUNNY   16  -4  41 N14       30.46S WCI   1
LEXINGTON      SUNNY     20  -7  30 N14       30.39S WCI   7
HOLDREGE       SUNNY     19 -10  27 N12       30.40R WCI   6
HEBRON         SUNNY     17  -5  36 N14       30.47S WCI   3

...NEBRASKA PANHANDLE...

CITY           SKY/WX    TMP DP  RH WIND       PRES   REMARKS
CHADRON        MOSUNNY   15   1  53 NE8       30.36F WCI   4
ALLIANCE       PTSUNNY   11   0  61 NE10      30.29S WCI  -3
SCOTTSBLUFF    LGT SNOW  16   7  67 E9        30.27S WCI   4
SIDNEY         CLOUDY    15   5  64 E5        30.25S WCI   8

...WESTERN AND NORTH CENTRAL NEBRASKA...

CITY           SKY/WX    TMP DP  RH WIND       PRES   REMARKS
VALENTINE      PTSUNNY   12  -3  51 N14       30.43S WCI  -3
AINSWORTH      MOSUNNY   11  -3  53 N15G21    30.42F WCI  -5
ONEILL         CLOUDY    11   1  63 N14       30.47S WCI  -5
BROKEN BOW     SUNNY     17  -5  37 N15       30.39S WCI   2
IMPERIAL         N/A     20   0  41 N9        30.32R WCI   9
NORTH PLATTE   SUNNY     19  -6  33 N13G23    30.36R WCI   6
MCCOOK         SUNNY     24  -3  30 N9        30.37R WCI  14

...EASTERN NEBRASKA...

CITY           SKY/WX    TMP DP  RH WIND       PRES   REMARKS
NORFOLK        PTSUNNY   12   0  58 N14       30.48S WCI  -3
SO SIOUX CITY  CLOUDY    11   0  61 NW18G26   30.52S WCI  -7
TEKAMAH        CLOUDY    12  -1  56 NW16      30.53R WCI  -5
COLUMBUS       PTSUNNY   10  -6  48 N12       30.51R WCI  -4
ALBION         MOSUNNY   13  -1  53 N14       30.46S WCI  -2
OMAHA EPPLEY   FLURRIES  10   1  67 N13       30.53S WCI  -5
OFFUTT AFB     MOSUNNY   12  -1  56 NW13G21   30.52R WCI  -3
MILLARD        CLOUDY    12   0  59 N10G20    30.53S WCI  -2
LINCOLN        PTSUNNY   14  -1  51 N15       30.52S WCI  -1
NEBRASKA CITY  CLOUDY    11  -2  55 N17G23    30.49S WCI  -6
BEATRICE       SUNNY     16   0  51 N14       30.49S WCI   1
FALLS CITY     MOSUNNY   15  -2  46 N13       30.50R WCI   1

...NORTHERN KANSAS...

CITY           SKY/WX    TMP DP  RH WIND       PRES   REMARKS
GOODLAND       FLURRIES  18   7  62 E5        30.29S WCI  11
HILL CITY      SUNNY     24  -7  25 N14       30.40S WCI  12
NORTON         CLEAR     21 -13  21 N10       30.38R WCI  10
PHILLIPSBURG   SUNNY     25  -6  26 N8G20     30.43R WCI  16
HAYS           SUNNY     21  -8  27 NE13G20   30.40S WCI   9
RUSSELL        SUNNY     22  -7  27 N15G22    30.41S WCI   9
CONCORDIA      SUNNY     19  -4  36 N13       30.46S WCI   6
SALINA         SUNNY     23  -5  29 N17       30.46S WCI   9
TOPEKA         MOSUNNY   19  -1  41 N14       30.49R WCI   6



USA.gov is the U.S. government's official web portal to all federal, state and local government web resources and services.